Date,TemperatureHighF,TemperatureAvgF,TemperatureLowF,DewpointHighF,DewpointAvgF,DewpointLowF,HumidityHigh,HumidityAvg,HumidityLow,PressureMaxIn,PressureMinIn,WindSpeedMaxMPH,WindSpeedAvgMPH,GustSpeedMaxMPH,PrecipitationSumIn
2013-3-1,54,40,27,33,29,24,92,67,43,30.00,29.89,8,0,11,0.00
2013-3-2,48,40,31,36,32,20,94,73,54,29.98,29.87,10,1,17,0.00
2013-3-3,50,35,23,26,21,17,89,57,30,30.08,29.94,10,1,12,0.00
2013-3-4,58,40,22,30,22,17,86,52,24,30.23,30.07,6,1,8,0.00
2013-3-5,54,45,38,47,38,27,97,77,56,30.12,29.69,9,1,18,0.48
2013-3-6,48,39,31,32,27,21,83,62,44,30.17,29.78,20,5,23,0.00
2013-3-7,60,42,26,34,30,24,92,65,35,30.30,30.17,6,1,7,0.00
2013-3-8,64,45,28,32,27,19,88,54,25,30.37,30.22,5,1,6,0.00
2013-3-9,64,49,32,34,29,22,75,48,29,30.39,30.25,5,1,10,0.00
2013-3-10,68,55,41,40,37,32,77,52,32,30.32,30.15,10,1,10,0.00
2013-3-11,66,56,50,56,49,40,97,79,59,30.18,29.82,9,1,12,0.95
2013-3-12,71,58,48,56,45,20,97,69,18,30.03,29.76,14,2,16,0.16
2013-3-13,58,46,37,33,27,20,75,48,29,30.21,30.02,16,4,21,0.00
2013-3-14,56,41,26,25,21,15,81,47,27,30.37,30.20,11,1,13,0.00
2013-3-15,74,53,31,44,32,14,74,46,31,30.24,29.95,9,1,15,0.00
2013-3-16,79,66,55,51,46,42,65,49,34,29.96,29.78,13,2,15,0.00
2013-3-17,76,64,53,53,48,43,71,56,38,30.01,29.87,8,1,12,0.00
2013-3-18,55,44,42,46,42,40,97,90,71,30.10,29.88,7,1,16,0.70
2013-3-19,66,45,42,43,39,20,97,87,19,30.08,29.90,11,1,24,0.00
2013-3-20,60,48,39,31,22,16,64,36,21,30.14,29.85,14,3,18,0.00
2013-3-21,50,41,32,32,14,4,65,34,20,29.99,29.85,18,5,21,0.00
2013-3-22,50,39,29,30,21,14,74,49,33,30.13,29.99,4,0,8,0.00
2013-3-23,53,46,41,48,41,30,95,84,59,30.08,29.89,5,0,6,0.15
2013-3-24,49,45,43,46,43,42,96,94,86,29.92,29.58,12,1,18,1.22
2013-3-25,46,40,34,43,28,24,97,63,46,30.00,29.60,22,4,26,0.01
2013-3-26,48,39,28,29,25,22,84,59,39,30.25,29.99,17,2,18,0.00
2013-3-27,60,42,24,29,24,13,90,55,20,30.35,30.19,11,1,14,0.00
2013-3-28,66,46,28,31,23,8,89,48,12,30.37,30.19,13,1,16,0.00
2013-3-29,59,47,31,42,30,19,78,53,30,30.40,30.25,11,1,12,0.00
2013-3-30,69,55,45,50,43,41,91,67,37,30.25,30.05,6,1,8,0.03
2013-3-31,70,59,52,59,54,50,97,85,57,30.07,29.85,10,1,12,0.83